SCP
0 0 0 0 -0 -0 -0 -0 0 0 0 0 0 0 0 0 -0 -0 -0 -0 -0 -0 0 -0 -0 -0 -0 0 -0 0 0 0
0 0 0 0 0 -0 -0 -0 -0 0 -0 0 -0 0 0 0 0 -0 -0 -0 -0 -0 -0 0 -0 -0 -0 -0 -0 -0 0 0
0 -0 -0 0 0 0 -0 0 -0 -0 -0 -0 0 0 0 -0 -0 -0 -0 -0 -0 -0 -0 0 0 -0 -0 -0 -0 -0 0 0
-0 -0 -0 0 0 0 0 -0 0 -0 0 -0 0 -0 -0 0 -0 -0 -0 -0 -0 -0 -0 -0 -0 -0 0 0 0 0 0 0
0 0 0 0 0 0 0 0 0 0 0 -0 -0 -0 0 0 0 0 0 0 0 -0 -0 -0 -0 -0 0 0 0 0 0 0
-0 0 0 -0 0 -0 0 0 0 0 0 0 -0 0 -0 0 0 0 0 -0 -0 -0 -0 -0 -0 -0 0 0 0 0 0 0
0 0 -0 -0 -0 -0 0 0 0 0 0 0 0 -0 -0 -0 0 0 0 0 -0 -0 -0 -0 -0 -0 -0 0 0 0 0 0
-0 0 0 0 0 0 0 0 0 0 -0 -0 0 0 -0 -0 0 0 0 0 0 0 -0 -0 -0 -0 -0 0 -0 0 0 0
0 0 0 0 0 0 0 0 -0 0 -0 -0 -0 -0 0 -0 0 0 0 0 0 0 0 -0 -0 -0 -0 0 -0 0 -0 0
0 0 0 0 0 0 0 0 0 0 -0 0 0 -0 0 0 0 -0 -0 0 0 0 0 0 0 -0 -0 -0 -0 0 1 1
0 0 0 -0 -0 0 0 0 0 0 -0 -0 0 0 0 0 0 0 0 0 0 0 -0 0 0 0 0 0 1 1 0 0
0 0 0 -0 0 0 0 0 -0 -0 -0 0 0 0 -0 0 0 1 0 0 0 0 0 0 0 0 0 0 0 0 0 0
0 0 0 0 0 0 0 0 -0 -0 0 0 0 0 0 0 1 1 0 0 0 0 0 0 0 0 1 1 1 0 0 0
0 0 0 0 0 0 0 0 0 0 0 0 0 0 0 0 1 1 1 1 1 1 0 1 1 1 0 0 1 0 0 0
0 0 0 0 0 0 0 0 0 0 0 0 0 0 0 1 2 2 2 1 1 1 0 1 1 0 0 0 0 0 0 0
0 0 0 0 0 0 0 0 0 0 0 0 0 0 1 3 3 5 4 1 1 1 1 1 1 0 -0 0 0 0 0 0
0 -0 -0 -0 -0 -0 0 0 0 0 0 0 0 0 1 2 2 2 1 2 1 2 1 1 1 0 0 0 0 0 0 0
0 -0 -0 -0 -0 -0 0 0 0 0 0 0 0 0 0 1 0 0 2 1 1 2 1 1 1 0 0 0 0 0 0 0
0 0 0 0 -0 -0 -0 0 0 0 0 0 0 0 0 0 0 1 0 1 1 1 1 1 1 0 0 0 0 0 0 0
Wind_Speed_500mb
13 14 15 7 7 4 15 9 7 14 12 22 21 19 26 45 59 69 81 82 81 73 79 78 75 71 62 47 39 32 26 25
6 13 10 13 20 6 6 10 7 14 14 14 18 12 3 16 41 70 83 88 87 81 80 81 78 71 58 48 39 23 24 25
8 11 18 7 6 9 11 8 11 7 12 19 21 17 16 30 51 67 83 89 93 83 77 79 76 69 61 55 48 38 31 30
8 16 11 10 12 11 9 9 5 2 11 12 15 14 27 45 62 76 83 88 86 80 79 83 77 73 70 60 48 39 35 31
17 15 9 5 2 6 14 8 13 10 11 11 14 8 24 28 61 69 83 73 77 82 81 75 79 78 74 63 53 46 38 35
11 17 6 14 11 15 14 8 13 12 15 14 12 14 25 35 39 39 61 72 69 83 84 83 80 79 77 70 55 50 37 45
8 13 5 7 8 14 11 9 13 19 18 24 17 20 35 30 37 35 32 63 67 82 80 76 71 61 77 75 63 38 41 45
14 15 17 11 18 13 14 19 8 3 21 21 23 22 27 36 37 34 31 41 76 89 83 74 58 57 69 74 56 42 43 39
12 11 14 11 8 7 9 12 18 10 22 16 14 14 34 50 46 41 37 45 76 85 76 62 61 56 57 51 46 39 33 35
9 11 8 16 8 20 17 11 12 5 9 23 36 65 45 66 61 53 50 48 56 68 61 67 63 57 51 41 36 29 35 35
7 8 13 17 8 4 7 11 9 8 7 18 15 12 13 57 65 59 56 55 51 54 53 69 59 55 47 46 46 43 29 29
6 6 12 12 42 46 9 9 63 61 39 13 13 9 18 66 74 63 56 50 44 50 53 59 58 54 49 46 40 33 34 27
8 8 4 35 50 21 14 20 78 77 54 27 14 17 37 60 71 66 67 59 58 59 61 59 54 55 50 41 31 28 29 35
7 7 2 62 22 16 19 53 68 66 71 25 12 18 28 63 74 75 78 74 69 70 62 60 55 46 38 35 34 36 36 31
4 3 11 36 20 33 47 52 69 51 73 54 44 26 29 68 77 69 73 72 71 72 73 59 48 38 39 35 40 39 36 39
11 10 27 49 35 63 69 59 72 57 59 60 39 20 25 60 69 67 72 55 77 82 67 54 46 40 31 42 45 46 44 40
13 23 52 10 44 57 72 65 75 69 72 66 41 19 34 63 76 77 70 60 70 76 65 58 53 48 36 47 48 52 47 42
15 36 40 48 69 65 61 69 67 80 81 70 56 18 30 64 87 65 82 85 82 78 67 63 61 54 46 49 54 55 53 54
54 66 71 68 68 61 53 68 72 69 78 75 72 55 26 46 79 81 66 87 87 79 71 67 64 54 51 54 59 60 63 60
Wind_Direction_500mb
161 145 145 203 67 124 103 359 26 318 293 289 277 1 162 173 180 187 197 201 205 202 208 214 218 219 217 219 221 221 224 223
183 119 27 166 158 83 30 108 65 275 279 237 296 332 109 191 186 191 198 204 204 202 205 211 217 214 213 215 213 207 216 221
113 201 171 94 205 71 111 112 154 230 249 217 220 251 224 195 203 192 198 204 207 208 207 207 212 214 213 215 211 210 211 218
271 279 174 107 162 146 120 223 219 187 274 121 206 231 266 243 200 209 204 207 210 207 209 211 210 213 208 205 206 212 220 224
350 0 8 280 86 107 100 106 191 165 255 189 148 288 274 162 198 206 209 209 203 198 196 197 200 199 204 204 205 209 220 226
183 227 210 313 178 176 128 132 164 235 254 241 202 202 254 143 158 184 208 210 204 199 195 194 194 201 206 204 209 213 217 229
286 239 267 282 180 210 205 158 165 221 234 258 197 195 219 174 159 175 189 194 201 191 190 191 191 207 212 211 204 220 241 222
316 325 355 317 329 216 194 199 284 193 245 261 243 203 203 199 166 173 182 194 187 175 180 180 188 196 199 208 214 222 201 204
281 342 340 1 291 231 257 177 174 170 226 265 242 189 199 201 181 175 174 181 179 177 175 179 176 178 185 187 193 202 214 216
248 17 343 238 283 255 216 287 261 273 201 226 224 219 221 202 183 182 176 179 182 187 177 170 176 177 177 184 192 199 212 205
167 185 270 303 283 286 188 263 236 185 290 203 200 112 241 211 195 193 196 184 180 190 199 182 175 180 190 193 200 195 202 207
130 167 226 334 332 299 148 221 1 331 292 210 181 158 232 213 199 191 185 181 187 193 185 187 193 192 195 198 195 194 200 197
184 208 279 337 335 340 62 322 325 339 312 268 149 202 234 211 199 194 183 178 170 172 181 188 196 197 193 197 198 206 204 184
339 185 274 356 20 51 317 326 327 347 6 359 5 197 187 205 198 194 186 181 182 179 186 189 186 192 194 191 187 176 168 168
108 248 115 12 37 358 347 334 333 334 352 338 337 340 201 185 187 180 186 188 188 188 174 175 181 193 181 180 174 166 168 176
357 306 341 340 347 343 342 337 339 340 339 340 318 319 173 172 170 164 158 212 188 178 176 177 180 187 191 182 171 170 172 169
259 292 323 307 335 344 333 336 343 339 335 331 317 272 195 192 183 167 181 201 189 185 183 185 180 187 181 175 171 170 173 171
290 301 291 301 317 322 320 325 327 330 331 335 337 235 195 211 206 182 171 182 196 191 191 182 182 186 181 178 176 176 170 168
288 288 293 298 305 310 304 311 313 319 318 332 331 314 240 233 201 189 170 179 195 191 191 180 182 185 184 181 178 176 168 169
Wind_Speed_850mb
13 14 15 7 7 4 15 9 7 14 12 22 21 19 26 45 59 69 81 82 81 73 79 78 75 71 62 47 39 32 26 25
6 13 10 13 20 6 6 10 7 14 14 14 18 12 3 16 41 70 83 88 87 81 80 81 78 71 58 48 39 23 24 25
8 11 18 7 6 9 11 8 11 7 12 19 21 17 16 30 51 67 83 89 93 83 77 79 76 69 61 55 48 38 31 30
8 16 11 10 12 11 9 9 5 2 11 12 15 14 27 45 62 76 83 88 86 80 79 83 77 73 70 60 48 39 35 31
17 15 9 5 2 6 14 8 13 10 11 11 14 8 24 28 61 69 83 73 77 82 81 75 79 78 74 63 53 46 38 35
11 17 6 14 11 15 14 8 13 12 15 14 12 14 25 35 39 39 61 72 69 83 84 83 80 79 77 70 55 50 37 45
8 13 5 7 8 14 11 9 13 19 18 24 17 20 35 30 37 35 32 63 67 82 80 76 71 61 77 75 63 38 41 45
14 15 17 11 18 13 14 19 8 3 21 21 23 22 27 36 37 34 31 41 76 89 83 74 58 57 69 74 56 42 43 39
12 11 14 11 8 7 9 12 18 10 22 16 14 14 34 50 46 41 37 45 76 85 76 62 61 56 57 51 46 39 33 35
9 11 8 16 8 20 17 11 12 5 9 23 36 65 45 66 61 53 50 48 56 68 61 67 63 57 51 41 36 29 35 35
7 8 13 17 8 4 7 11 9 8 7 18 15 12 13 57 65 59 56 55 51 54 53 69 59 55 47 46 46 43 29 29
6 6 12 12 42 46 9 9 63 61 39 13 13 9 18 66 74 63 56 50 44 50 53 59 58 54 49 46 40 33 34 27
8 8 4 35 50 21 14 20 78 77 54 27 14 17 37 60 71 66 67 59 58 59 61 59 54 55 50 41 31 28 29 35
7 7 2 62 22 16 19 53 68 66 71 25 12 18 28 63 74 75 78 74 69 70 62 60 55 46 38 35 34 36 36 31
4 3 11 36 20 33 47 52 69 51 73 54 44 26 29 68 77 69 73 72 71 72 73 59 48 38 39 35 40 39 36 39
11 10 27 49 35 63 69 59 72 57 59 60 39 20 25 60 69 67 72 55 77 82 67 54 46 40 31 42 45 46 44 40
13 23 52 10 44 57 72 65 75 69 72 66 41 19 34 63 76 77 70 60 70 76 65 58 53 48 36 47 48 52 47 42
15 36 40 48 69 65 61 69 67 80 81 70 56 18 30 64 87 65 82 85 82 78 67 63 61 54 46 49 54 55 53 54
54 66 71 68 68 61 53 68 72 69 78 75 72 55 26 46 79 81 66 87 87 79 71 67 64 54 51 54 59 60 63 60
Wind_Direction_850mb
161 145 145 203 67 124 103 359 26 318 293 289 277 1 162 173 180 187 197 201 205 202 208 214 218 219 217 219 221 221 224 223
183 119 27 166 158 83 30 108 65 275 279 237 296 332 109 191 186 191 198 204 204 202 205 211 217 214 213 215 213 207 216 221
113 201 171 94 205 71 111 112 154 230 249 217 220 251 224 195 203 192 198 204 207 208 207 207 212 214 213 215 211 210 211 218
271 279 174 107 162 146 120 223 219 187 274 121 206 231 266 243 200 209 204 207 210 207 209 211 210 213 208 205 206 212 220 224
350 0 8 280 86 107 100 106 191 165 255 189 148 288 274 162 198 206 209 209 203 198 196 197 200 199 204 204 205 209 220 226
183 227 210 313 178 176 128 132 164 235 254 241 202 202 254 143 158 184 208 210 204 199 195 194 194 201 206 204 209 213 217 229
286 239 267 282 180 210 205 158 165 221 234 258 197 195 219 174 159 175 189 194 201 191 190 191 191 207 212 211 204 220 241 222
316 325 355 317 329 216 194 199 284 193 245 261 243 203 203 199 166 173 182 194 187 175 180 180 188 196 199 208 214 222 201 204
281 342 340 1 291 231 257 177 174 170 226 265 242 189 199 201 181 175 174 181 179 177 175 179 176 178 185 187 193 202 214 216
248 17 343 238 283 255 216 287 261 273 201 226 224 219 221 202 183 182 176 179 182 187 177 170 176 177 177 184 192 199 212 205
167 185 270 303 283 286 188 263 236 185 290 203 200 112 241 211 195 193 196 184 180 190 199 182 175 180 190 193 200 195 202 207
130 167 226 334 332 299 148 221 1 331 292 210 181 158 232 213 199 191 185 181 187 193 185 187 193 192 195 198 195 194 200 197
184 208 279 337 335 340 62 322 325 339 312 268 149 202 234 211 199 194 183 178 170 172 181 188 196 197 193 197 198 206 204 184
339 185 274 356 20 51 317 326 327 347 6 359 5 197 187 205 198 194 186 181 182 179 186 189 186 192 194 191 187 176 168 168
108 248 115 12 37 358 347 334 333 334 352 338 337 340 201 185 187 180 186 188 188 188 174 175 181 193 181 180 174 166 168 176
357 306 341 340 347 343 342 337 339 340 339 340 318 319 173 172 170 164 158 212 188 178 176 177 180 187 191 182 171 170 172 169
259 292 323 307 335 344 333 336 343 339 335 331 317 272 195 192 183 167 181 201 189 185 183 185 180 187 181 175 171 170 173 171
290 301 291 301 317 322 320 325 327 330 331 335 337 235 195 211 206 182 171 182 196 191 191 182 182 186 181 178 176 176 170 168
288 288 293 298 305 310 304 311 313 319 318 332 331 314 240 233 201 189 170 179 195 191 191 180 182 185 184 181 178 176 168 169